Location: ECC Obs
(38.4314°N, 90.9815°W)
Time: 03:19:25
(UTC-05:00)

Explorer 11/Cluster Stage 4 - All Passes

Search period start: 31 March 2020 00:00
Search period end: 10 April 2020 00:00
Orbit: 467 x 1259 km, 28.8° (Epoch: 30 March)

Date Brightness Start Highest point End Pass type
(mag) Time Alt. Az. Time Alt. Az. Time Alt. Az.
31 Mar - 09:26:37 10° SSW 09:28:42 13° SSE 09:30:38 10° SE daylight
31 Mar - 11:13:33 10° SW 11:16:26 19° S 11:19:07 10° SE daylight
31 Mar - 13:01:52 10° SW 13:04:03 15° S 13:06:15 10° SSE daylight
01 Apr - 09:15:11 10° SSW 09:17:59 16° S 09:20:32 10° SE daylight
01 Apr - 11:02:40 10° SW 11:05:46 20° S 11:08:35 10° SE daylight
01 Apr - 12:51:20 10° SW 12:53:22 14° SSW 12:55:22 10° SSE daylight
02 Apr - 09:03:53 10° SSW 09:07:16 18° S 09:10:17 10° SE daylight
02 Apr - 10:51:47 10° SW 10:55:05 21° S 10:58:03 10° SE daylight
02 Apr - 12:40:50 10° SW 12:42:40 13° SSW 12:44:27 10° SSE daylight
03 Apr - 07:06:34 10° S 07:08:33 12° SSE 07:10:25 10° SE daylight
03 Apr - 08:52:39 10° SW 08:56:33 21° S 08:59:56 10° ESE daylight
03 Apr - 10:40:53 10° SW 10:44:23 22° S 10:47:29 10° SE daylight
03 Apr - 12:30:22 10° SW 12:31:58 12° SSW 12:33:29 10° S daylight
04 Apr - 06:54:30 10° SSW 06:57:45 15° SSE 07:00:42 10° SE daylight
04 Apr - 08:41:27 10° SW 08:45:49 24° S 08:49:31 10° ESE daylight
04 Apr - 10:29:59 10° WSW 10:33:41 23° S 10:36:55 10° SE daylight
04 Apr - 12:20:01 10° SW 12:21:13 11° SSW 12:22:24 10° S daylight
05 Apr - 06:42:48 10° SSW 06:46:56 18° SSE 06:50:37 10° ESE daylight
05 Apr - 08:30:18 10° SW 08:35:05 26° S 08:39:05 10° ESE daylight
05 Apr - 10:19:04 10° WSW 10:22:58 23° S 10:26:20 10° SE daylight
05 Apr - 12:09:57 10° SSW 12:10:29 10° SSW 12:10:59 10° SSW daylight
06 Apr - 06:31:15 10° SSW 06:36:07 21° SSE 06:40:20 10° ESE daylight
06 Apr - 08:19:09 10° SW 08:24:18 28° S 08:28:36 10° ESE daylight
06 Apr - 10:08:08 10° WSW 10:12:13 23° SSW 10:15:43 10° SE daylight
07 Apr - 04:34:54 10° S 04:36:58 11° SSE 04:38:58 10° SE visible
07 Apr - 06:19:49 10° SW 06:25:15 24° SSE 06:29:57 10° ESE daylight
07 Apr - 08:08:01 10° WSW 08:13:31 31° S 08:18:04 10° ESE daylight
07 Apr - 09:57:13 10° WSW 10:01:28 23° SSW 10:05:04 10° SE daylight
08 Apr - 04:22:25 10° S 04:26:02 14° SSE 04:29:27 10° SE visible
08 Apr - 06:08:26 10° SW 06:14:23 27° SSE 06:19:30 10° ESE visible
08 Apr - 07:56:54 10° WSW 08:02:42 32° S 08:07:30 10° ESE daylight
08 Apr - 09:46:16 10° WSW 09:50:40 23° SSW 09:54:24 10° SE daylight
09 Apr - 04:10:29 10° SSW 04:15:04 17° SSE 04:19:22 10° ESE visible
09 Apr - 05:57:08 10° SW 06:03:29 30° S 06:08:58 10° ESE visible
09 Apr - 07:45:47 10° WSW 07:51:52 34° S 07:56:54 10° ESE daylight
09 Apr - 09:35:20 10° WSW 09:39:52 22° SSW 09:43:42 10° SSE daylight
